Wind_Speed
20 20 20 19 19 20 20 19 18 18 18 18 18 17 18 18 17 17 17 18 18 18 18 18 19 19 19 19 19 20 20 20 21 20 20 21 20 21
20 20 20 20 20 20 20 20 19 20 20 19 19 19 19 19 18 18 18 19 19 19 20 20 20 20 20 20 20 20 20 21 21 21 21 21 21 21
22 22 22 21 21 21 21 21 21 22 22 21 20 21 20 19 19 19 20 20 20 20 20 20 21 21 21 21 21 20 21 21 21 20 20 20 20 21
23 23 23 23 23 23 23 24 24 24 24 23 22 22 22 22 21 21 21 21 21 21 21 21 22 22 23 22 22 21 21 21 21 21 20 20 20 20
25 24 24 24 24 25 25 25 25 26 25 24 24 24 24 23 23 22 23 23 23 23 22 23 23 23 23 23 23 22 22 22 21 21 22 21 21 21
25 24 24 24 24 25 26 26 27 27 27 26 25 25 25 25 25 24 24 24 24 24 24 24 24 23 23 23 23 23 23 23 23 22 22 22 22 22
25 25 25 25 25 26 26 26 26 27 27 27 26 25 25 25 26 26 26 26 25 25 25 25 24 24 25 25 25 25 24 24 24 24 24 23 23 23
27 27 26 26 27 27 26 27 27 27 27 28 27 27 26 26 27 26 26 26 26 26 26 26 25 25 25 26 26 26 26 25 25 25 24 24 24 24
27 27 28 27 27 27 27 27 27 27 27 28 28 28 28 27 27 27 27 26 26 26 27 27 27 26 26 26 26 26 26 26 26 26 26 25 25 26
28 28 28 28 28 27 27 27 27 27 27 28 28 28 28 28 27 27 28 28 28 28 27 27 27 27 26 26 25 25 25 26 26 26 26 26 26 26
30 29 29 29 28 28 28 28 28 27 27 28 28 28 28 28 29 28 29 30 30 29 29 28 28 27 26 26 26 26 26 27 27 27 27 27 27 27
30 30 30 30 29 29 29 29 29 28 28 28 28 28 28 28 29 29 29 30 30 30 29 30 30 29 29 28 28 27 28 28 28 28 28 28 28 28
31 30 30 30 29 29 29 29 29 29 28 28 28 28 28 29 30 29 29 29 29 29 29 30 30 30 30 29 29 29 29 29 29 29 29 29 29 29
31 30 30 29 30 30 30 30 29 29 28 28 28 28 29 30 30 29 29 30 30 30 30 30 30 30 30 30 30 30 30 30 30 29 29 30 30 30
30 30 30 30 30 31 31 30 30 29 29 28 29 29 29 29 29 30 30 30 30 30 29 30 30 30 30 30 30 30 30 30 30 30 30 30 30 30
31 30 29 28 29 30 30 30 29 29 29 29 30 30 30 30 30 30 30 30 30 30 31 30 30 30 30 30 30 30 30 30 30 30 30 31 31 31
30 29 29 28 28 28 29 29 29 29 30 30 29 30 30 30 30 31 31 31 31 31 31 31 32 31 31 31 32 32 32 31 31 31 31 31 31 32
29 29 29 28 28 27 28 29 30 30 30 29 30 30 30 31 31 30 30 31 30 30 31 32 32 32 31 31 32 32 33 32 32 32 32 32 32 32
29 29 29 29 28 28 29 29 30 30 30 30 30 30 31 31 31 31 30 30 31 31 31 31 32 31 31 31 32 33 33 32 32 32 33 32 32 32
30 30 30 30 30 29 29 29 30 30 30 30 30 30 31 31 32 31 31 30 30 31 31 31 31 31 32 32 32 33 33 32 32 32 32 32 32 32
31 31 31 30 31 30 30 30 30 30 30 30 31 31 31 31 31 31 31 30 31 31 31 31 31 32 33 33 32 32 32 32 32 32 32 32 32 32
32 32 31 31 31 31 31 31 31 30 31 31 31 31 31 31 31 31 31 31 31 32 31 31 32 32 33 32 32 31 31 32 32 32 33 33 32 32
33 32 32 32 32 32 32 32 32 31 30 31 31 31 32 32 32 32 31 31 32 32 32 32 32 32 32 32 32 32 32 32 33 33 33 34 34 34
Wind_Direction
273 273 272 272 272 269 265 262 263 264 268 271 272 274 274 272 273 274 276 276 277 277 279 279 278 278 279 279 280 281 281 281 280 278 277 276 276 277
274 274 273 271 271 268 264 264 265 266 267 269 271 273 274 273 272 273 275 276 276 278 278 279 278 278 277 279 281 281 280 280 280 279 278 277 276 278
275 274 274 272 270 266 264 265 266 266 266 269 270 271 272 273 273 274 275 275 276 278 278 278 278 278 278 277 279 280 280 280 280 280 279 279 278 279
275 276 274 272 270 266 265 266 267 267 267 268 269 268 270 271 272 273 274 275 276 277 278 277 277 278 279 278 278 279 281 280 280 280 280 279 279 279
275 276 276 273 272 269 267 267 268 268 267 269 270 269 270 270 271 272 273 274 275 275 277 277 277 278 277 277 279 278 279 280 280 279 279 278 278 278
275 274 274 274 272 271 269 268 268 267 267 267 269 270 269 270 270 272 272 273 275 275 275 276 277 277 277 277 278 278 278 279 278 279 278 277 277 278
275 274 275 275 273 272 269 269 269 269 267 266 267 269 269 269 270 271 272 273 274 275 274 274 275 276 276 277 278 278 279 279 277 277 277 276 276 278
275 275 275 276 274 274 271 269 269 270 268 266 266 266 266 268 270 271 272 273 274 275 275 274 273 273 274 275 275 277 277 277 278 278 277 276 275 275
276 275 275 275 274 274 272 270 270 271 270 266 266 265 265 267 269 270 271 274 275 276 276 275 274 274 273 274 274 275 276 277 278 277 277 277 277 277
276 276 277 276 275 274 273 271 271 271 270 268 267 266 265 266 268 270 272 274 275 275 275 275 274 273 273 274 273 274 275 275 275 275 276 277 279 279
276 276 276 276 274 272 272 271 270 270 269 268 268 267 267 267 269 271 273 274 275 275 274 274 275 276 275 276 276 276 275 274 274 274 274 276 277 277
275 274 274 273 272 271 270 271 269 269 269 267 268 268 267 268 270 271 272 272 272 272 272 272 273 274 275 276 277 278 277 275 274 272 273 274 276 277
275 273 273 273 272 271 269 270 270 269 268 268 267 268 269 269 270 271 272 271 272 272 272 271 272 273 274 274 276 278 278 277 275 273 273 274 275 276
274 273 273 272 271 270 270 269 269 269 268 267 267 269 270 271 271 270 271 272 273 272 272 273 274 274 275 275 276 277 278 278 275 274 274 274 275 275
273 273 272 271 270 270 270 269 267 267 266 266 267 269 269 270 269 269 270 272 273 274 274 274 274 275 275 275 277 278 278 277 276 274 275 277 276 276
273 273 273 273 271 269 268 267 267 267 267 267 268 269 269 268 268 269 270 272 273 273 273 274 275 276 276 275 277 278 278 278 277 276 276 277 278 278
273 272 273 274 273 271 269 268 268 269 269 269 268 269 269 269 269 270 272 273 273 273 273 273 274 275 276 276 277 278 278 278 277 276 276 277 277 278
274 272 272 272 271 272 270 269 269 269 270 269 269 269 270 270 270 271 272 273 273 273 273 273 274 275 276 277 278 278 278 277 276 276 277 277 278 278
274 272 272 273 272 271 271 271 271 270 269 269 269 269 269 269 271 271 272 273 274 274 274 275 274 274 276 277 278 278 279 278 277 276 277 277 277 278
273 272 272 272 272 272 271 272 272 270 269 268 268 268 268 269 271 271 272 272 274 275 275 276 276 276 277 278 278 278 279 279 278 278 278 278 278 280
272 272 271 272 273 271 270 271 272 271 270 269 268 269 269 269 270 270 271 271 273 274 274 275 277 279 279 279 279 279 279 278 277 278 278 279 280 280
271 270 270 270 271 270 268 269 271 271 271 270 268 269 270 270 270 270 270 270 271 272 273 275 277 279 280 280 279 278 278 278 278 278 279 279 280 281
270 268 268 269 269 268 267 268 269 270 271 270 268 269 270 270 271 269 270 270 270 272 274 276 277 278 279 279 279 279 279 278 278 278 279 280 280 281
Height
5799 5798 5798 5798 5799 5799 5800 5801 5803 5803 5804 5805 5805 5806 5806 5806 5806 5806 5806 5806 5806 5807 5807 5807 5806 5806 5806 5806 5805 5805 5805 5804 5804 5804 5804 5804 5804 5805
5793 5793 5793 5793 5793 5793 5794 5795 5797 5798 5799 5800 5800 5800 5801 5801 5801 5801 5801 5801 5801 5801 5801 5801 5801 5801 5800 5800 5800 5799 5799 5799 5798 5798 5798 5798 5798 5798
5787 5787 5787 5787 5787 5788 5788 5789 5790 5791 5793 5794 5794 5794 5795 5795 5796 5796 5796 5796 5796 5796 5795 5795 5795 5795 5794 5794 5794 5793 5793 5793 5792 5792 5792 5792 5792 5792
5781 5781 5781 5781 5781 5782 5782 5783 5784 5785 5786 5787 5788 5788 5789 5789 5789 5790 5790 5790 5790 5790 5790 5789 5789 5789 5788 5788 5788 5787 5787 5787 5786 5786 5786 5786 5786 5785
5774 5774 5774 5774 5774 5775 5775 5776 5777 5778 5779 5780 5781 5781 5782 5782 5783 5783 5783 5783 5783 5783 5783 5783 5783 5782 5782 5781 5781 5781 5780 5780 5780 5779 5779 5779 5779 5779
5767 5767 5767 5767 5767 5767 5768 5769 5769 5770 5771 5772 5773 5773 5774 5775 5775 5776 5776 5776 5776 5776 5776 5776 5776 5775 5775 5775 5774 5774 5774 5773 5773 5773 5773 5773 5773 5773
5760 5760 5760 5760 5760 5760 5760 5761 5761 5762 5763 5764 5765 5766 5766 5767 5767 5768 5768 5769 5769 5768 5769 5769 5769 5768 5768 5768 5767 5767 5767 5766 5766 5766 5766 5766 5766 5765
5752 5752 5752 5751 5752 5752 5752 5752 5753 5754 5754 5755 5756 5757 5758 5758 5759 5759 5760 5761 5761 5761 5761 5761 5761 5761 5761 5760 5760 5760 5759 5759 5759 5759 5758 5758 5758 5758
5744 5744 5744 5743 5743 5743 5743 5744 5745 5745 5746 5746 5747 5748 5749 5750 5750 5751 5752 5752 5753 5753 5753 5753 5753 5753 5753 5752 5752 5752 5752 5751 5751 5751 5750 5750 5750 5750
5735 5735 5735 5735 5735 5735 5735 5736 5736 5737 5737 5737 5738 5739 5740 5741 5741 5742 5742 5743 5744 5744 5744 5744 5745 5745 5745 5744 5744 5744 5744 5743 5743 5743 5743 5743 5742 5742
5726 5726 5726 5726 5726 5726 5726 5727 5728 5728 5728 5729 5729 5730 5730 5731 5732 5732 5733 5734 5735 5735 5735 5735 5736 5736 5736 5737 5736 5736 5735 5735 5735 5735 5735 5735 5735 5734
5717 5717 5716 5717 5717 5717 5717 5718 5719 5719 5720 5720 5721 5721 5722 5722 5723 5724 5724 5725 5725 5726 5726 5726 5727 5727 5728 5728 5728 5727 5727 5726 5726 5726 5726 5726 5726 5726
5708 5707 5707 5707 5707 5707 5708 5708 5709 5710 5711 5711 5712 5713 5713 5714 5714 5715 5715 5715 5716 5717 5717 5717 5717 5717 5718 5718 5718 5718 5718 5717 5717 5717 5717 5717 5717 5717
5698 5698 5698 5698 5698 5698 5698 5699 5700 5700 5702 5703 5703 5704 5704 5705 5705 5705 5706 5706 5706 5707 5707 5707 5707 5708 5708 5708 5709 5709 5708 5708 5708 5708 5707 5707 5707 5707
5688 5688 5688 5688 5688 5688 5689 5690 5690 5691 5692 5693 5694 5694 5695 5695 5695 5696 5696 5696 5697 5697 5697 5697 5698 5698 5698 5699 5699 5699 5699 5699 5698 5698 5698 5698 5698 5697
5678 5678 5678 5678 5678 5678 5679 5680 5681 5682 5683 5684 5684 5685 5685 5685 5686 5686 5687 5687 5687 5688 5688 5688 5688 5688 5688 5689 5689 5689 5689 5689 5688 5688 5688 5688 5687 5687
5668 5668 5668 5668 5669 5669 5670 5671 5671 5672 5673 5674 5674 5675 5675 5676 5676 5677 5677 5678 5678 5678 5678 5678 5678 5678 5678 5678 5679 5678 5678 5678 5678 5677 5678 5677 5677 5676
5658 5658 5659 5659 5660 5660 5661 5662 5662 5663 5663 5664 5665 5665 5666 5666 5667 5667 5667 5668 5668 5668 5668 5668 5668 5668 5668 5668 5668 5668 5667 5667 5667 5667 5666 5667 5667 5666
5648 5649 5649 5650 5651 5651 5652 5652 5653 5653 5653 5654 5654 5655 5656 5656 5657 5657 5657 5658 5658 5658 5657 5657 5657 5657 5658 5658 5658 5657 5656 5656 5656 5656 5656 5656 5655 5655
5639 5639 5640 5640 5641 5641 5642 5643 5643 5643 5643 5644 5644 5645 5646 5646 5647 5647 5647 5647 5647 5647 5647 5647 5647 5647 5647 5647 5647 5646 5645 5645 5645 5645 5645 5644 5644 5644
5629 5630 5630 5631 5631 5632 5632 5633 5633 5633 5633 5634 5635 5635 5636 5636 5637 5637 5637 5637 5637 5637 5637 5637 5636 5636 5636 5636 5636 5635 5634 5633 5633 5633 5633 5633 5633 5633
5619 5619 5620 5621 5621 5621 5622 5623 5623 5623 5623 5624 5625 5625 5626 5626 5626 5626 5626 5627 5627 5627 5627 5627 5626 5626 5625 5625 5625 5625 5624 5624 5623 5622 5622 5622 5622 5621
5608 5609 5609 5610 5610 5611 5611 5612 5612 5613 5613 5614 5614 5615 5615 5615 5615 5616 5616 5616 5616 5617 5616 5616 5616 5615 5615 5614 5614 5614 5614 5613 5613 5613 5612 5611 5610 5610